| time (UTC) | temp F | wind direction | speed MPH | gust MPH | rain 1hr in | rain 24hr in | rain mn in | humidity % | barometer mb |
| 20260503053036 | 53 | 308 | 2.0 | 4.0 | 0.00 | 0.00 | 0.00 | 63 | 1018.8 |
| 20260503051528 | 53 | 338 | 0.0 | 3.0 | 0.00 | 0.00 | 0.00 | 61 | 1018.8 |
| 20260503050043 | 53 | 360 | 3.0 | 6.0 | 0.00 | 0.00 | 0.00 | 58 | 1018.8 |
| 20260503044534 | 52 | 306 | 3.0 | 5.0 | 0.00 | 0.00 | 0.00 | 63 | 1018.9 |
| 20260503043029 | 52 | 9 | 1.0 | 4.0 | 0.00 | 0.00 | 0.00 | 61 | 1018.8 |
| 20260503041549 | 53 | 5 | 3.0 | 9.0 | 0.00 | 0.00 | 0.00 | 60 | 1018.9 |
| 20260503040041 | 53 | 360 | 2.0 | 8.0 | 0.00 | 0.00 | 0.00 | 59 | 1018.9 |
| 20260503034536 | 54 | 313 | 3.0 | 9.0 | 0.00 | 0.00 | 0.00 | 58 | 1018.8 |
| 20260503033100 | 54 | 350 | 6.0 | 10.0 | 0.00 | 0.00 | 0.00 | 59 | 1018.9 |
| 20260503031551 | 54 | 360 | 3.0 | 9.0 | 0.00 | 0.00 | 0.00 | 60 | 1019.0 |
| 20260503030031 | 54 | 285 | 6.0 | 9.0 | 0.00 | 0.00 | 0.00 | 57 | 1019.0 |
| 20260503024551 | 54 | 298 | 4.0 | 6.0 | 0.00 | 0.00 | 0.00 | 59 | 1019.0 |
| 20260503023034 | 53 | 17 | 1.0 | 10.0 | 0.00 | 0.00 | 0.00 | 61 | 1019.2 |
| 20260503021546 | 53 | 9 | 5.0 | 9.0 | 0.00 | 0.00 | 0.00 | 62 | 1019.2 |
| 20260503020046 | 53 | 360 | 2.0 | 3.0 | 0.00 | 0.00 | 0.00 | 61 | 1019.4 |
| 20260503014541 | 54 | 360 | 2.0 | 6.0 | 0.00 | 0.00 | 0.00 | 60 | 1019.4 |
| 20260503013033 | 54 | 5 | 6.0 | 11.0 | 0.00 | 0.00 | 0.00 | 59 | 1019.5 |
| 20260503011543 | 55 | 360 | 5.0 | 8.0 | 0.00 | 0.00 | 0.00 | 58 | 1019.6 |
| 20260503010031 | 54 | 360 | 3.0 | 8.0 | 0.00 | 0.00 | 0.00 | 59 | 1019.7 |
| 20260503004545 | 54 | 342 | 4.0 | 9.0 | 0.00 | 0.00 | 0.00 | 60 | 1019.9 |
| 20260503003034 | 54 | 12 | 4.0 | 8.0 | 0.00 | 0.00 | 0.00 | 61 | 1020.0 |
| 20260503001530 | 54 | 20 | 1.0 | 3.0 | 0.00 | 0.00 | 0.00 | 61 | 1020.3 |
| 20260503000046 | 55 | 20 | 1.0 | 4.0 | 0.00 | 0.00 | 0.00 | 59 | 1020.5 |
| 20260502234509 | 55 | 346 | 1.0 | 6.0 | 0.00 | 0.00 | 0.00 | 59 | 1020.7 |
| 20260502233100 | 55 | 355 | 4.0 | 8.0 | 0.00 | 0.00 | 0.00 | 59 | 1020.8 |
| 20260502231556 | 55 | 355 | 3.0 | 6.0 | 0.00 | 0.00 | 0.00 | 59 | 1020.9 |
| 20260502230034 | 55 | 347 | 4.0 | 6.0 | 0.00 | 0.00 | 0.00 | 59 | 1021.0 |
| 20260502224547 | 55 | 47 | 1.0 | 4.0 | 0.00 | 0.00 | 0.00 | 57 | 1021.0 |
| 20260502223045 | 55 | 69 | 0.0 | 2.0 | 0.00 | 0.00 | 0.00 | 57 | 1021.1 |
| 20260502221532 | 56 | 360 | 1.0 | 3.0 | 0.00 | 0.00 | 0.00 | 57 | 1021.1 |
| 20260502220046 | 56 | 92 | 1.0 | 4.0 | 0.00 | 0.00 | 0.00 | 56 | 1021.2 |
| 20260502214541 | 56 | 22 | 7.0 | 11.0 | 0.00 | 0.00 | 0.00 | 57 | 1021.1 |
| 20260502213035 | 57 | 61 | 0.0 | 4.0 | 0.00 | 0.00 | 0.00 | 55 | 1021.1 |
| 20260502211541 | 57 | 34 | 2.0 | 4.0 | 0.00 | 0.00 | 0.00 | 56 | 1021.1 |
| 20260502210045 | 57 | 5 | 0.0 | 2.0 | 0.00 | 0.00 | 0.00 | 55 | 1021.1 |
| 20260502204546 | 58 | 16 | 2.0 | 4.0 | 0.00 | 0.00 | 0.00 | 54 | 1021.1 |
| 20260502203033 | 58 | 19 | 2.0 | 9.0 | 0.00 | 0.00 | 0.00 | 52 | 1021.1 |
| 20260502201522 | 58 | 36 | 3.0 | 5.0 | 0.00 | 0.00 | 0.00 | 54 | 1021.1 |
| 20260502200041 | 59 | 360 | 1.0 | 2.0 | 0.00 | 0.00 | 0.00 | 52 | 1021.3 |
| 20260502194537 | 59 | 360 | 1.0 | 5.0 | 0.00 | 0.00 | 0.00 | 50 | 1021.1 |
| 20260502193029 | 59 | 15 | 4.0 | 6.0 | 0.00 | 0.00 | 0.00 | 51 | 1021.0 |
| 20260502191541 | 60 | 360 | 3.0 | 5.0 | 0.00 | 0.00 | 0.00 | 50 | 1021.1 |
| 20260502190034 | 60 | 355 | 3.0 | 5.0 | 0.00 | 0.00 | 0.00 | 48 | 1021.0 |
| 20260502184533 | 61 | 360 | 2.0 | 4.0 | 0.00 | 0.00 | 0.00 | 47 | 1020.8 |
| 20260502183042 | 62 | 42 | 3.0 | 4.0 | 0.00 | 0.00 | 0.00 | 45 | 1020.8 |
| 20260502181536 | 63 | 30 | 2.0 | 4.0 | 0.00 | 0.00 | 0.00 | 46 | 1020.6 |
| 20260502163035 | 69 | 360 | 6.0 | 11.0 | 0.00 | 0.00 | 0.00 | 41 | 1020.7 |
| 20260502161551 | 69 | 182 | 4.0 | 9.0 | 0.00 | 0.00 | 0.00 | 42 | 1020.8 |
| 20260502151542 | 70 | 157 | 3.0 | 9.0 | 0.00 | 0.00 | 0.00 | 43 | 1021.3 |
| 20260502123031 | 68 | 157 | 6.0 | 15.0 | 0.00 | 0.00 | 0.00 | 46 | 1023.2 |
| 20260502121548 | 69 | 119 | 5.0 | 9.0 | 0.00 | 0.00 | 0.00 | 51 | 1023.4 |
| 20260502114534 | 68 | 184 | 5.0 | 12.0 | 0.00 | 0.00 | 0.00 | 46 | 1023.8 |
| 20260502113044 | 67 | 161 | 4.0 | 11.0 | 0.00 | 0.00 | 0.00 | 54 | 1023.9 |
| 20260502111538 | 68 | 171 | 5.0 | 9.0 | 0.00 | 0.00 | 0.00 | 48 | 1024.2 |
| 20260502110029 | 67 | 176 | 5.0 | 10.0 | 0.00 | 0.00 | 0.00 | 48 | 1024.5 |
| 20260502104549 | 67 | 360 | 7.0 | 12.0 | 0.00 | 0.00 | 0.00 | 53 | 1024.6 |
| 20260502103036 | 65 | 201 | 2.0 | 10.0 | 0.00 | 0.00 | 0.00 | 50 | 1024.9 |
| 20260502101550 | 66 | 158 | 6.0 | 11.0 | 0.00 | 0.00 | 0.00 | 53 | 1025.1 |
| 20260502070033 | 57 | 202 | 2.0 | 4.0 | 0.00 | 0.00 | 0.00 | 60 | 1026.5 |
| 20260502064549 | 56 | 12 | 3.0 | 6.0 | 0.00 | 0.00 | 0.00 | 60 | 1026.5 |
| 20260502063038 | 55 | 355 | 3.0 | 6.0 | 0.00 | 0.00 | 0.00 | 62 | 1026.4 |
| 20260502061533 | 52 | 113 | 2.0 | 4.0 | 0.00 | 0.00 | 0.00 | 65 | 1026.4 |
| 20260502060029 | 51 | 17 | 4.0 | 10.0 | 0.00 | 0.00 | 0.00 | 67 | 1026.5 |
| 20260502054545 | 49 | 5 | 5.0 | 9.0 | 0.00 | 0.00 | 0.00 | 71 | 1026.5 |